This demonstration page uses our WeatherBlox Daily Observations layout. Learn more.

Hourly Observations for January 30, 2019

Temp ( °F °C ) Dew Point ( °F °C ) Humidity (%) Winds ( mph kmh ) Pressure ( in mb ) Visibility ( mi km ) Precip ( " mm )
12:15 am 00:15 Clear 5 -15 -2 -19.1 71 71 NNE 10 17 30.5 1033 10 16.0934 0 0
12:35 am 00:35 Clear 4 -15.5 -2 -19 75 75 N 9 15 30.5 1033 10 16.0934 0 0
12:55 am 00:55 Clear 4 -15.7 -3 -19.3 74 74 N 8 13 30.5 1033 10 16.0934 0 0
1:15 am 01:15 Clear 3 -15.9 -3 -19.5 74 74 Calm 30.5 1033 10 16.0934 0 0
1:35 am 01:35 Clear 3 -16.3 -3 -19.6 76 76 N 3 6 30.5 1033 10 16.0934 0 0
1:55 am 01:55 Partly Cloudy 3 -16.2 -4 -19.8 74 74 N 3 6 30.5 1033 10 16.0934 0 0
2:15 am 02:15 Mostly Cloudy 3 -16.1 -3 -19.7 74 74 N 3 6 30.5 1033 10 16.0934 0 0
2:35 am 02:35 Cloudy 3 -16 -4 -20 72 72 Calm 30.49 1032 10 16.0934 0 0
2:55 am 02:55 Partly Cloudy 3 -16.1 -4 -20 72 72 N 3 6 30.5 1033 10 16.0934 0 0
3:15 am 03:15 Mostly Cloudy 3 -16.3 -3 -19.6 76 76 NE 5 7 30.49 1033 10 16.0934 0 0
3:35 am 03:35 Partly Cloudy 3 -16.2 -4 -20 73 73 NNE 7 11 30.48 1032 10 16.0934 0 0
3:55 am 03:55 Clear 3 -16.1 -3 -19.4 76 76 ENE 6 9 30.47 1032 10 16.0934 0 0
4:15 am 04:15 Partly Cloudy 2 -16.5 -3 -19.4 78 78 ESE 5 7 30.47 1032 10 16.0934 0 0
4:35 am 04:35 Partly Cloudy 2 -16.4 -3 -19.3 78 78 ESE 7 11 30.47 1032 10 16.0934 0 0
4:55 am 04:55 Mostly Cloudy 3 -16.3 -2 -19.1 79 79 SE 6 9 30.46 1032 10 16.0934 0 0
5:15 am 05:15 Cloudy 3 -16.3 -2 -19.1 79 79 ESE 7 11 30.45 1031 10 16.0934 0 0
5:35 am 05:35 Cloudy 3 -16.3 -2 -19.1 79 79 ESE 6 9 30.44 1031 10 16.0934 0 0
5:55 am 05:55 Cloudy 3 -16.2 -2 -19.1 79 79 SE 7 11 30.44 1031 10 16.0934 0 0
6:15 am 06:15 Cloudy 3 -16.3 -3 -19.3 78 78 SE 7 11 30.43 1031 10 16.0934 0 0
6:35 am 06:35 Partly Cloudy 3 -16.3 -3 -19.3 78 78 SE 8 13 30.44 1031 10 16.0934 0 0
6:55 am 06:55 Partly Cloudy 3 -16.3 -3 -19.4 77 77 SE 6 9 30.44 1031 10 16.0934 0 0
7:15 am 07:15 Partly Cloudy 3 -16.3 -3 -19.4 77 77 SE 6 9 30.44 1031 10 16.0934 0 0
7:35 am 07:35 Partly Cloudy 2 -16.5 -3 -19.5 78 78 SSE 8 13 30.43 1031 10 16.0934 0 0
9:35 am 09:35 Partly Cloudy 6 -14.7 0 -17.7 78 78 SSE 10 17 30.42 1030 10 16.0934 0 0
9:55 am 09:55 Sunny 6 -14.3 0 -17.6 76 76 SSE 13 20 30.4 1029 10 16.0934 0 0
10:15 am 10:15 Partly Cloudy 7 -13.7 1 -17.2 75 75 S 12 19 30.4 1030 10 16.0934 0 0
10:35 am 10:35 Sunny 8 -13.1 1 -17.4 70 70 S 12 19 30.39 1029 10 16.0934 0 0
10:55 am 10:55 Partly Cloudy 9 -12.6 1 -17.1 69 69 SSE 13 20 30.38 1029 10 16.0934 0 0
11:15 am 11:15 Partly Cloudy 11 -11.9 2 -16.7 68 68 S 13 20 30.38 1029 10 16.0934 0 0
11:35 am 11:35 Partly Cloudy 11 -11.6 1 -17.2 64 64 S 10 17 30.37 1029 10 16.0934 0 0
11:55 am 11:55 Partly Cloudy 12 -11 2 -16.6 64 64 S 13 20 30.35 1028 10 16.0934 0 0
12:15 pm 12:15 Mostly Cloudy 13 -10.8 2 -16.6 63 63 S 14 22 30.33 1027 10 16.0934 0 0
12:35 pm 12:35 Cloudy 13 -10.7 2 -16.5 63 63 S 12 19 30.32 1027 10 16.0934 0 0
12:55 pm 12:55 Cloudy 13 -10.3 3 -16.2 62 62 SSW 15 24 30.31 1026 10 16.0934 0 0
1:15 pm 13:15 Cloudy 14 -9.9 3 -16 61 61 S 16 26 30.28 1026 10 16.0934 0 0
1:35 pm 13:35 Cloudy 15 -9.3 4 -15.6 61 61 SSW 15 24 30.28 1025 10 16.0934 0 0
1:55 pm 13:55 Cloudy 17 -8.3 4 -15.3 57 57 SSW 10 17 30.25 1024 10 16.0934 0 0
2:15 pm 14:15 Mostly Cloudy 17 -8.5 4 -15.3 58 58 SSW 16 26 30.24 1024 10 16.0934 0 0
2:35 pm 14:35 Mostly Cloudy 18 -7.7 5 -14.9 57 57 S 13 20 30.22 1023 10 16.0934 0 0
2:55 pm 14:55 Mostly Cloudy 18 -7.7 6 -14.7 58 58 S 15 24 30.22 1023 10 16.0934 0 0
3:15 pm 15:15 Partly Cloudy 19 -7.2 6 -14.5 56 56 S 16 26 30.21 1023 10 16.0934 0 0
3:35 pm 15:35 Partly Cloudy 19 -7.5 7 -14.1 60 60 S 15 24 30.21 1023 10 16.0934 0 0
3:55 pm 15:55 Partly Cloudy 19 -7.5 7 -13.9 61 61 S 13 20 30.21 1023 10 16.0934 0 0
4:15 pm 16:15 Partly Cloudy 19 -7.1 8 -13.6 60 60 SSE 14 22 30.18 1022 10 16.0934 0 0
4:35 pm 16:35 Sunny 19 -7.2 8 -13.6 61 61 S 10 17 30.19 1022 10 16.0934 0 0
4:55 pm 16:55 Partly Cloudy 19 -7.5 7 -13.7 62 62 SSE 12 19 30.19 1022 10 16.0934 0 0
5:15 pm 17:15 Sunny 18 -7.6 8 -13.6 63 63 SSE 10 17 30.18 1022 10 16.0934 0 0
5:35 pm 17:35 Sunny 18 -7.8 8 -13.5 64 64 SSE 14 22 30.18 1022 10 16.0934 0 0
6:15 pm 18:15 Clear 17 -8.5 8 -13.5 68 68 SSE 14 22 30.19 1022 10 16.0934 0 0
6:35 pm 18:35 Clear 16 -9 7 -14.1 67 67 SSE 13 20 30.19 1022 10 16.0934 0 0
6:55 pm 18:55 Clear 15 -9.5 6 -14.2 69 69 SSE 13 20 30.2 1023 10 16.0934 0 0
7:15 pm 19:15 Clear 14 -9.8 6 -14.5 69 69 SSE 14 22 30.2 1023 10 16.0934 0 0
7:35 pm 19:35 Clear 14 -10.1 6 -14.5 70 70 SSE 13 20 30.21 1023 10 16.0934 0 0
7:55 pm 19:55 Clear 13 -10.3 6 -14.5 72 72 SSE 14 22 30.2 1023 10 16.0934 0 0
8:15 pm 20:15 Clear 13 -10.5 6 -14.5 73 73 SSE 15 24 30.2 1023 10 16.0934 0 0
8:35 pm 20:35 Clear 13 -10.6 6 -14.5 73 73 SE 18 30 30.2 1023 10 16.0934 0 0
8:55 pm 20:55 Clear 12 -11.1 5 -15 73 73 SSE 14 22 30.21 1023 10 16.0934 0 0
9:15 pm 21:15 Clear 12 -11.3 5 -15 74 74 SSE 15 24 30.21 1023 10 16.0934 0 0
9:35 pm 21:35 Clear 12 -11.3 5 -15.1 74 74 SSE 14 22 30.21 1023 10 16.0934 0 0
9:55 pm 21:55 Clear 12 -11.3 5 -15.1 74 74 SSE 14 22 30.2 1023 10 16.0934 0 0
10:15 pm 22:15 Clear 11 -11.4 5 -15.1 74 74 SSE 14 22 30.2 1023 10 16.0934 0 0
10:35 pm 22:35 Clear 12 -11.2 5 -15 74 74 SSE 14 22 30.2 1023 10 16.0934 0 0
10:55 pm 22:55 Clear 12 -11.2 6 -14.7 76 76 SSE 13 20 30.2 1023 10 16.0934 0 0
11:15 pm 23:15 Clear 13 -10.8 6 -14.4 75 75 SSE 14 22 30.19 1022 10 16.0934 0 0
11:35 pm 23:35 Clear 13 -10.5 7 -14.1 75 75 S 14 22 30.2 1023 10 16.0934 0 0
11:55 pm 23:55 Clear 13 -10.4 7 -14 75 75 SSE 10 17 30.19 1022 10 16.0934 0 0

Powered by AerisWeather